Regional Weather Roundup
Issued by NWS

Home | Current Version | Previous Version | Text Only | Print | Product List | Glossary Off
Versions: 1 2 3 4 5 6 7 8 9 10 11 12 13 14 15 16 17 18 19 20 21 22 23 24 25 26 27

000
ASUS45 KBOU 202307
RWRCO

WEATHER ROUNDUP FOR COLORADO
NATIONAL WEATHER SERVICE DENVER/BOULDER CO
500 PM MDT SUN AUG 20 2017

NOTE: "FAIR" INDICATES FEW OR NO CLOUDS BELOW 12000 FEET WITH NO
SIGNIFICANT WEATHER AND/OR OBSTRUCTIONS TO VISIBILITY.

COZ001>005-013-030-031-210000-
...NORTHWEST COLORADO...

CITY           SKY/WX    TMP DP  RH WIND       PRES   REMARKS
CRAIG          FAIR      84  29  13 CALM      30.11R
HAYDEN         CLOUDY    77  36  22 S22G32    30.15S
MEEKER         FAIR      85  32  15 SW7       30.13F
RABBIT EARS PA FAIR      61  34  36 SW5       30.48S
STEAMBOAT SPGS CLOUDY    78  38  24 E3        30.17R
WALDEN         PTSUNNY   70  30  23 SE7       30.29S
$$

COZ006>008-011-210000-
...WEST CENTRAL VALLEYS...

CITY           SKY/WX    TMP DP  RH WIND       PRES   REMARKS
GRAND JUNCTION FAIR      93  31  11 NW9       29.98F
MONTROSE       FAIR      87  31  13 NW6       30.08F
EAGLE          FAIR      85  35  16 W10G21    30.14F
RIFLE          FAIR      91  31  11 NW7       30.05F
DELTA          FAIR      94  27   9 W14G22    30.00F
NUCLA          FAIR      88  27  11 W13       30.11S
$$

COZ017>023-064>068-210000-
...SOUTHWEST COLORADO...

CITY           SKY/WX    TMP DP  RH WIND       PRES   REMARKS
DURANGO        CLOUDY    75  37  25 N13       30.23R
CORTEZ         RAIN      67  51  56 N8G28     30.18R
PAGOSA SPRINGS CLOUDY    68  39  34 N9G17     30.32R
TELLURIDE      FAIR      67  34  29 CALM      30.41R
WOLF CREEK PAS CLOUDY    46  34  61 SW7G18    30.65F
$$

COZ009-010-012-014-032>034-037-058>063-210000-
...CENTRAL COLORADO...

CITY           SKY/WX    TMP DP  RH WIND       PRES   REMARKS
ASPEN          FAIR      79  28  15 N6        30.22F
BUENA VISTA    FAIR      72  31  22 SE17G24   30.30R
COPPER MTN     CLOUDY    59  32  36 S10G17    30.60R
BERTHOUD PASS  TSTM      45  39  81 SW9G28    30.67R
COTTONWOOD PAS FAIR      66  32  28 SE7G22    30.45R
GUNNISON       FAIR      76  42  29 SW6       30.22S
KREMMLING      FAIR      86  21   9 N3        30.22S
LEADVILLE      FAIR      66  29  24 VRB5      30.40S
MONARCH PASS   CLOUDY    55  32  41 E14       30.70R
SALIDA         PTSUNNY   75  33  21 NW15G23   30.34R
SUNLIGHT       FAIR      63  30  29 W7G16     30.52S
WILKERSON PASS FAIR      55  32  41 E8        30.59R
$$

COZ069>075-210000-
...SAN LUIS VALLEY/SANGRE DE CRISTO MOUNTAINS...

CITY           SKY/WX    TMP DP  RH WIND       PRES   REMARKS
ALAMOSA        FAIR      72  42  34 S20       30.25R
DEL NORTE      FAIR      75  37  25 W18G25    30.28R
LA VETA PASS   NOT AVBL
SAGUACHE       FAIR      77  36  22 S6        30.25S
$$

COZ035-036-038>040-210000-
...NORTHERN COLORADO FRONT RANGE...

CITY           SKY/WX    TMP DP  RH WIND       PRES   REMARKS
DENVER INTL AP PTSUNNY   88  33  14 E5        30.08F
DMNS CITY PARK   N/A     87  31  13 N2G10     30.07S
AURORA         PTSUNNY   85  38  18 N5        30.10F
FRONT RANGE AP PTSUNNY   88  30  12 CALM      30.10S
ERIE MUNI ARPT FAIR      87  38  17 N8        30.12S
BOULDER MUN AP FAIR      82  32  16 N5        30.08F
CENTENNIAL     PTSUNNY   86  30  13 NE6       30.12S
BROOMFIELD     PTSUNNY   86  34  15 N10       30.12S
FORT COLLINS   FAIR      86  47  25 SE7       30.07F
LONGMONT       FAIR      87  36  16 CALM      30.09S
$$

COZ041-046-047-076>085-087-088-210000-
...PIKES PEAK/PALMER DIVIDE AND SOUTHERN FOOTHILLS...

CITY           SKY/WX    TMP DP  RH WIND       PRES   REMARKS
COLO. SPRINGS  PTSUNNY   84  44  24 NE10      30.16R
A. F. ACADEMY  PTSUNNY   78  40  25 NE3       30.18R
SCHRIEVER AFB  FAIR      81  44  26 E6        30.16R
CHEYENNE MTN   PTSUNNY   78  41  26 NW7       30.16R
ELLICOTT       NOT AVBL
FALCON         FAIR      78  39  24 CALM      30.22S
FORT CARSON    PTSUNNY   82  52  34 E9        30.11S
LIMON          FAIR      85  43  22 NE8       30.08S
MONUMENT HILL  FAIR      70  46  43 E5        30.24S
CANON CITY     SUNNY     88  48  25 MISG      30.07R
WALSENBURG     FAIR      88  36  15 E8        30.10F
TRINIDAD       FAIR      77  44  30 W22G28    30.10R
$$

COZ042>045-048>051-090-091-210000-
...NORTHEAST COLORADO...

CITY           SKY/WX    TMP DP  RH WIND       PRES   REMARKS
GREELEY ARPT   FAIR      87  48  25 E5        30.05S
AKRON          FAIR      89  52  28 E12       30.03F
BURLINGTON     FAIR      91  60  35 E7        29.99S
WRAY           NOT AVBL
YUMA           FAIR      86  45  23 E7        30.00R
STERLING       FAIR      88  63  42 NE6       29.98S
HOLYOKE        FAIR      88  64  45 E7        29.98S
FORT MORGAN    FAIR      90  40  17 NE8       30.03F
$$

COZ086-089-092>099-210000-
...SOUTHEAST COLORADO...

CITY           SKY/WX    TMP DP  RH WIND       PRES   REMARKS
PUEBLO         FAIR      93  42  17 E13       29.99F
LA JUNTA       FAIR      92  50  23 E7        29.96F
LAMAR          FAIR      92  58  31 SE8       29.92F
SPRINGFIELD      N/A     86  57  37 S16       29.99S
$$




USA.gov is the U.S. government's official web portal to all federal, state and local government web resources and services.